Lid_Strength_Index
2 2 2 2 4 4 4 5 5 4 4 5 5 5 5 5 5 6 9 7 5 -1 1 5 6 6 6 6 7 7 8 11 11 11 9 6 7 5 4 5 5 4 4 3 2
2 2 2 2 3 4 4 5 5 5 4 4 5 5 5 5 7 8 3 -0 -2 -1 5 5 6 6 7 7 7 6 8 10 10 9 9 6 6 6 6 6 6 5 4 3 2
2 2 2 2 4 4 5 5 5 5 4 5 5 5 5 5 8 6 0 0 -2 -0 5 4 5 6 7 8 8 8 8 9 9 9 8 6 6 5 6 7 5 6 5 4 3
2 2 2 2 4 4 5 5 5 5 5 5 5 5 5 6 10 6 -1 -0 -2 4 5 5 6 8 8 9 8 9 9 9 8 7 5 6 5 6 6 5 4 4 4 4 4
2 2 3 3 3 4 5 5 5 6 6 6 5 5 6 10 8 2 -2 -2 3 5 5 6 7 8 8 8 8 9 9 9 8 9 5 5 6 6 6 4 3 3 4 4 4
2 2 2 3 4 4 4 5 5 5 6 6 5 5 6 10 5 2 3 7 6 6 6 6 6 6 7 8 8 8 8 9 9 6 5 6 6 6 5 4 4 4 4 4 4
2 2 2 3 4 4 5 5 6 6 6 5 5 5 8 9 5 4 6 7 6 5 6 6 5 6 6 7 7 8 8 8 8 6 5 5 7 7 5 5 5 5 4 4 3
2 2 2 3 3 4 5 5 5 5 5 5 4 5 11 7 5 7 6 6 5 5 5 5 5 6 6 6 7 9 8 9 8 7 5 5 8 7 5 5 6 5 5 4 4
2 2 2 3 3 4 5 5 5 4 4 3 4 5 9 5 7 6 5 6 5 5 5 5 6 7 7 8 9 9 10 9 8 5 6 6 8 7 5 6 6 5 5 4 4
2 2 3 3 4 4 5 5 3 3 4 3 4 8 7 7 5 6 4 4 5 5 5 6 6 7 8 8 11 10 9 9 9 7 7 8 9 7 6 6 6 6 5 5 4
2 2 3 3 4 5 5 6 7 7 8 7 7 9 8 6 4 4 4 4 4 5 7 7 8 9 8 8 8 8 8 9 8 7 8 9 9 8 6 6 6 6 5 5 4
2 2 3 4 4 5 6 6 8 9 11 8 7 6 5 5 6 5 3 5 6 8 7 7 9 7 8 8 8 9 9 9 8 7 8 9 10 8 7 7 6 6 5 5 4
2 2 3 4 5 7 8 6 7 8 10 8 6 5 5 4 6 5 4 5 6 8 7 8 8 7 7 8 9 9 9 9 9 9 8 9 10 9 7 6 6 5 5 4 4
2 3 3 5 7 8 8 6 8 8 11 10 8 5 5 4 6 4 4 5 6 7 7 7 7 7 8 8 7 9 8 7 9 9 11 9 11 10 8 8 7 6 5 5 4
3 3 4 5 8 9 8 7 7 8 16 9 7 4 5 5 6 6 4 4 7 7 7 8 8 8 8 8 7 8 7 8 8 9 10 11 11 9 9 9 7 6 5 5 4
3 3 4 7 7 7 7 7 5 11 15 9 6 7 7 6 7 6 5 4 5 7 7 8 6 7 7 7 7 7 7 8 8 9 11 10 11 10 10 9 7 6 5 5 4
3 3 5 6 8 7 7 6 9 13 8 9 9 8 7 7 7 7 7 7 8 10 9 8 8 6 6 7 7 7 8 11 13 12 13 10 11 9 7 6 6 6 5 5 4
4 5 6 6 6 7 8 7 12 10 9 7 9 8 9 8 7 8 8 8 8 8 9 9 10 7 6 7 7 8 8 11 14 14 12 10 13 10 6 6 5 5 5 4 5
5 7 7 6 6 6 7 11 10 10 8 10 9 10 9 8 8 8 8 8 8 7 9 10 10 7 7 7 7 9 9 8 11 11 12 11 10 7 7 7 6 6 5 5 5
7 8 7 4 4 5 7 12 10 6 7 8 11 10 10 9 8 8 9 7 8 7 6 8 10 7 8 6 7 7 8 10 10 15 15 12 12 10 9 8 6 6 6 5 4
8 8 6 3 3 5 10 10 8 6 7 9 10 11 9 9 8 8 8 7 6 7 7 7 8 9 7 8 9 9 9 9 9 10 13 14 11 7 8 7 7 6 5 5 4
9 9 7 3 6 6 8 8 8 6 6 7 8 9 9 8 8 8 8 7 6 6 7 6 8 10 9 7 7 8 9 9 11 13 12 11 11 7 6 6 6 5 5 4 3
10 10 5 4 8 8 7 7 7 7 6 7 8 8 7 8 9 8 8 6 5 6 7 7 9 12 11 8 7 8 9 9 9 9 12 12 10 7 6 6 5 5 5 4 4
9 10 6 5 6 7 8 8 8 5 6 6 7 6 7 8 7 8 8 6 6 6 5 6 9 10 12 10 8 10 9 8 9 11 12 10 9 7 6 6 6 5 5 4 4
9 10 7 8 7 7 7 8 9 9 6 6 7 7 8 9 9 9 8 7 6 7 6 6 10 9 9 8 8 9 9 9 9 9 10 10 9 7 7 7 6 6 5 5 5
10 8 6 7 7 8 8 8 9 8 7 8 8 7 7 8 8 9 8 8 8 7 7 7 10 9 11 9 8 9 8 8 8 9 9 9 9 6 7 6 6 6 6 5 5
8 8 6 8 8 8 8 8 8 7 6 6 7 8 8 7 6 6 6 6 7 7 8 9 10 10 12 10 9 11 9 8 9 8 8 10 8 7 8 7 7 6 6 6 5